Portland, ME

7:52 AM EDT on August 19, 2017 (GMT -0400)
Portland International

Weather History for KPWM - January, 2013

Change the Weather History Date:

Thursday, January 3, 2013

  Actual Average Record
Temperature  
Mean Temperature 12 °F 23 °F  
Max Temperature 23 °F 32 °F 59 °F (2000)
Min Temperature 1 °F 15 °F -16 °F (1957)
Degree Days  
Heating Degree Days 53 42  
Month to date heating degree days 147 124  
Since 1 July heating degree days 2497 2736  
Cooling Degree Days 0 0  
Month to date cooling degree days 0 0  
Year to date cooling degree days 0 0  
Moisture  
Dew Point -4 °F    
Average Humidity 50    
Maximum Humidity 63    
Minimum Humidity 36    
Precipitation  
Precipitation 0.00 in 0.12 in 2.24 in (1936)
Month to date precipitation 0.00 0.34  
Year to date precipitation 0.00 0.34  
Snow  
Snow 0.00 in 0.60 in 9.10 in (1996)
Month to date snowfall 0.0 1.8  
Since 1 July snowfall 27.7 16.9  
Snow Depth 0.00 in    
Sea Level Pressure  
Sea Level Pressure 30.04 in    
Wind  
Wind Speed 6 mph (WNW)    
Max Wind Speed 12 mph    
Max Gust Speed -    
Visibility 10 miles    
Events      
T = Trace of Precipitation, MM = Missing Value Source: NWS Daily Summary

Daily Weather History Graph

Daily Weather History Graph

Search for Another Location

Airport or City:

Trip Planner

Search our weather history database for the weather conditions in past years. The results will help you decide how hot, cold, wet, or windy it might be!

Date:

Astronomy

Jan. 03, 2013 Rise Set
Actual Time 7:14 AM EST 4:17 PM EST
Civil Twilight 6:42 AM EST 4:49 PM EST
Nautical Twilight 6:06 AM EST 5:25 PM EST
Astronomical Twilight 5:31 AM EST 6:00 PM EST
Moon 11:02 PM EST (1/3) 10:12 AM EST (1/3)
Length of Visible Light 10h 07m
Length of Day
9h 02m
Waning Gibbous, 65% of the Moon is Illuminated
Jan 3
Waning Gibbous
Jan 4
Last Quarter
Jan 11
New
Jan 18
First Quarter
Jan 26
Full

Hourly Weather History & Observations

Time (EST) Temp. Windchill Dew Point Humidity Pressure Visibility Wind Dir Wind Speed Gust Speed Precip Events Conditions
12:51 AM 3.9 °F - -9.9 °F 53% 30.07 in 10.0 mi Calm Calm - N/A   Clear
1:51 AM 3.0 °F -8.0 °F -9.0 °F 57% 30.09 in 10.0 mi West 5.8 mph - N/A   Clear
2:51 AM 3.9 °F -8.2 °F -9.0 °F 55% 30.09 in 10.0 mi WNW 6.9 mph - N/A   Clear
3:51 AM 3.9 °F -12.2 °F -8.0 °F 58% 30.09 in 10.0 mi WNW 11.5 mph - N/A   Clear
4:51 AM 1.9 °F -5.6 °F -9.0 °F 60% 30.08 in 10.0 mi NNW 3.5 mph - N/A   Clear
5:51 AM 1.0 °F -11.7 °F -9.0 °F 63% 30.09 in 10.0 mi West 6.9 mph - N/A   Clear
6:51 AM 1.0 °F -10.3 °F -9.0 °F 63% 30.09 in 10.0 mi WNW 5.8 mph - N/A   Clear
7:51 AM 1.0 °F -12.9 °F -9.0 °F 63% 30.10 in 10.0 mi WNW 8.1 mph - N/A   Clear
8:51 AM 5.0 °F -9.1 °F -7.1 °F 58% 30.10 in 10.0 mi NW 9.2 mph - N/A   Clear
9:51 AM 10.0 °F 0.4 °F -2.0 °F 58% 30.08 in 10.0 mi West 5.8 mph - N/A   Clear
10:45 AM 10.4 °F -0.4 °F -0.4 °F 62% 30.06 in 10.0 mi NW 6.9 mph - N/A   Clear
11:45 AM 12.2 °F -1.8 °F -0.4 °F 57% 30.04 in 10.0 mi WNW 11.5 mph - N/A   Clear
12:45 PM 15.8 °F 4.2 °F -0.4 °F 49% 30.01 in 10.0 mi NW 9.2 mph - N/A   Clear
12:51 PM - - - N/A% - - North - - N/A   Unknown
1:45 PM 19.4 °F 10.4 °F -2.2 °F 39% 30.00 in 10.0 mi NW 6.9 mph - N/A   Clear
1:51 PM 21.9 °F 14.5 °F 1.0 °F 40% 30.00 in 10.0 mi WNW 5.8 mph - N/A   Unknown
2:51 PM 21.2 °F 14.9 °F -0.4 °F 39% 29.98 in 10.0 mi WSW 4.6 mph - N/A   Clear
3:51 PM 21.0 °F 16.2 °F -2.0 °F 36% 29.98 in 10.0 mi West 3.5 mph - N/A   Clear
4:51 PM 19.9 °F 13.4 °F -0.9 °F 40% 29.98 in 10.0 mi West 4.6 mph - N/A   Clear
5:51 PM 19.0 °F 13.9 °F -0.0 °F 43% 29.98 in 10.0 mi West 3.5 mph - N/A   Partly Cloudy
6:51 PM 16.0 °F 8.8 °F -0.0 °F 49% 29.99 in 10.0 mi WNW 4.6 mph - N/A   Clear
7:51 PM 12.9 °F 3.8 °F -0.9 °F 54% 30.00 in 10.0 mi West 5.8 mph - N/A   Clear
8:51 PM 12.0 °F - -0.9 °F 56% 29.99 in 10.0 mi Calm Calm - N/A   Clear
9:51 PM 15.1 °F 7.7 °F -0.9 °F 49% 29.99 in 10.0 mi West 4.6 mph - N/A   Partly Cloudy
10:51 PM 12.9 °F - -0.9 °F 54% 29.98 in 10.0 mi Calm Calm - N/A   Clear
11:51 PM 12.0 °F 4.1 °F 1.0 °F 61% 29.95 in 10.0 mi SW 4.6 mph - N/A   Clear